This is the latest recevied weather packets stored in our database for station/object K1BES. If no packets are shown the sender has not sent any weather packets the latest 10 day(s).
| Time | Temp. | Humidity | Pressure | Rain* | Wind** | Luminosity | Snow |
|---|---|---|---|---|---|---|---|
| 1777722581 | 25.56° C | 91% | 1012.4 hPa | 0 mm | - | 49 W/m² | - |
| 1777722277 | 25° C | 91% | 1012.2 hPa | 0 mm | - | 50 W/m² | - |
| 1777721975 | 25° C | 91% | 1012.2 hPa | 0 mm | - | 49 W/m² | - |
| 1777721672 | 25° C | 91% | 1012.5 hPa | 0 mm | - | 43 W/m² | - |
| 1777721371 | 25° C | 91% | 1012.3 hPa | 0 mm | - | 36 W/m² | - |
| 1777721068 | 25° C | 91% | 1012.5 hPa | 0 mm | - | 31 W/m² | - |
| 1777720766 | 25° C | 91% | 1012.6 hPa | 0 mm | - | 24 W/m² | - |
| 1777720462 | 25° C | 91% | 1012.5 hPa | 0 mm | - | 18 W/m² | - |
| 1777720160 | 25° C | 91% | 1012.5 hPa | 0 mm | - | 13 W/m² | - |
| 1777719858 | 24.44° C | 91% | 1012.4 hPa | 0 mm | - | 9 W/m² | - |
| 1777719554 | 24.44° C | 91% | 1012.5 hPa | 0 mm | - | 6 W/m² | - |
| 1777719252 | 24.44° C | 91% | 1012.3 hPa | 0 mm | - | 3 W/m² | - |
| 1777718950 | 24.44° C | 91% | 1012.3 hPa | 0 mm | - | 2 W/m² | - |
| 1777718646 | 24.44° C | 91% | 1012.4 hPa | 0 mm | - | 1 W/m² | - |
| 1777718344 | 24.44° C | 91% | 1012.4 hPa | 0 mm | - | 0 W/m² | - |
| 1777718041 | 24.44° C | 91% | 1012.2 hPa | 0 mm | - | 0 W/m² | - |
| 1777717738 | 24.44° C | 91% | 1012.2 hPa | 0 mm | - | 0 W/m² | - |
| 1777717435 | 24.44° C | 90% | 1012.3 hPa | 0 mm | - | 0 W/m² | - |
| 1777717132 | 24.44° C | 90% | 1012.4 hPa | 0 mm | - | 0 W/m² | - |
| 1777716830 | 24.44° C | 90% | 1012.5 hPa | 0 mm | - | 0 W/m² | - |
| 1777716528 | 24.44° C | 89% | 1012.4 hPa | 0 mm | - | 0 W/m² | - |
| 1777716227 | 23.89° C | 89% | 1012.5 hPa | 0 mm | - | 0 W/m² | - |
| 1777715924 | 23.89° C | 89% | 1012.7 hPa | 0 mm | - | 0 W/m² | - |
| 1777715622 | 23.89° C | 90% | 1012.7 hPa | 0 mm | - | 0 W/m² | - |
| 1777715320 | 23.89° C | 90% | 1012.7 hPa | 0 mm | - | 0 W/m² | - |
* Rain latest hour (hover to see other rain measurements)
** Current wind speed in m/s (hover to see current wind gust speed)